Location: ??????????
(44.2167°N, 135.5333°E)
Time: 13:58:55
(UTC+00:00)

Envisat - Pass Details

Date: 15 June 2025
Orbit: 761 x 763 km, 98.3° (Epoch: 16 July)

Event Time Altitude Azimuth Distance (km) Brightness Sun altitude
Rises 17:58:15 0° 12° (NNE) 3,235 7.4 -10.9°
Reaches altitude 10° 18:00:34 10° 12° (NNE) 2,305 6.5 -10.7°
Maximum altitude 18:05:39 85° 285° (WNW) 770 3.0 -10.0°
Drops below altitude 10° 18:10:42 10° 197° (SSW) 2,287 4.9 -9.4°
Enters shadow 18:10:59 - 197° (SSW) 2,404 5.0 -9.4°
